Powrót do katalogu

STARLINK-3909

AktywnyŁącznośćVLEO
NORAD 52452·PAYLOAD·🇺🇸 United States

Wystrzelony May 6, 2022 z Cape Canaveral Space Force Station

Loading…

Następne Przeloty (najbliższe 24 godziny)

TLE

ŚwieżeSource: CelesTrak SupGP

Epoka: Sep 14, 2026, 13:23 UTC

1 52452C 22049B   26257.55812500  .00593160  00000+0  22564-1 0  2573
2 52452  53.1610 298.6315 0001212  74.4441  91.2709 15.25936573    15

Śledź STARLINK-3909 w czasie rzeczywistym z AllMySat

Download on the App Store